Presure
176 192 193 171 170 179 193 194 225 281 193 196 243 250 235 243 206 233 201 222 220 183 202 209 91 204 207 147 207 205 214 202 224 215 219 223 267 218 277 240 282 270 282 359 358 336 331
200 208 199 178 151 210 170 164 175 191 233 191 187 210 257 242 167 146 229 229 236 231 215 167 129 205 203 206 205 214 225 213 215 210 219 234 264 257 253 209 220 275 276 367 357 344 332
201 193 130 181 184 128 168 177 159 196 142 221 171 164 172 183 243 217 201 219 233 229 215 216 211 211 111 200 202 221 230 218 205 206 225 232 261 259 253 266 268 276 269 366 366 352 338
196 180 163 155 188 185 193 215 181 166 158 150 188 172 182 260 214 232 179 237 221 228 212 124 209 214 217 197 210 209 217 195 211 223 231 231 255 256 251 268 270 269 270 315 365 382 345
173 182 184 185 196 181 159 196 190 192 213 136 188 171 172 164 255 167 206 236 240 236 166 218 214 215 210 205 214 211 231 199 208 221 235 231 248 251 252 273 267 261 266 286 357 384 378
174 160 182 163 171 192 171 178 192 157 217 213 174 224 160 224 203 176 188 254 229 233 228 227 225 213 218 212 210 165 224 214 198 215 229 215 230 239 242 246 209 263 261 277 367 375 402
184 187 178 176 159 182 181 202 181 189 206 167 186 187 210 218 207 151 184 190 248 241 226 224 225 225 202 218 213 212 215 217 218 207 220 226 224 235 264 254 266 270 263 269 293 377 404
169 183 164 174 182 184 172 186 194 163 157 130 151 151 150 203 161 161 256 200 260 235 234 213 235 217 226 215 227 210 220 200 216 219 215 228 224 238 235 244 246 211 270 265 283 376 370
163 176 174 163 178 177 174 177 179 177 173 194 202 179 223 192 169 145 140 289 256 165 165 229 229 234 226 224 210 212 219 181 201 217 207 222 218 231 237 261 248 177 266 263 273 334 393
163 134 175 176 155 169 135 182 190 183 180 158 185 189 157 166 198 164 171 277 236 229 201 215 213 174 205 210 216 206 213 209 201 199 229 219 219 224 228 243 227 244 260 275 265 286 388
170 168 177 156 189 173 165 172 178 159 175 165 183 189 183 171 144 201 195 218 199 143 237 237 236 225 221 222 220 215 196 194 207 209 225 195 208 227 228 227 238 237 245 262 255 269 378
157 169 166 180 156 166 177 168 169 172 179 180 166 165 149 197 193 200 210 176 198 192 213 209 211 229 231 219 220 219 205 221 201 204 217 205 213 236 223 227 250 235 241 243 265 256 286
168 168 166 160 182 172 159 166 172 173 171 165 178 153 178 188 204 190 142 192 183 163 192 187 182 184 230 211 168 216 217 223 211 208 216 212 215 216 217 224 238 243 227 237 252 254 266
150 150 162 170 171 166 174 177 165 168 169 131 192 165 163 186 195 189 187 200 186 204 198 240 174 236 179 215 208 218 224 225 228 206 216 219 212 225 227 221 225 249 216 223 229 253 247
124 160 158 166 157 164 151 169 136 161 131 174 187 193 181 190 177 184 180 194 172 193 226 180 194 184 183 199 241 219 218 225 221 211 202 215 220 212 159 224 224 232 237 230 234 248 252
151 127 155 167 162 155 130 149 163 139 160 185 172 175 177 207 155 183 174 173 181 188 193 210 169 185 259 226 193 186 238 237 224 226 216 208 212 209 225 215 214 221 239 221 231 230 245
157 145 162 160 160 160 159 166 163 156 162 163 155 165 152 160 125 146 141 170 179 186 190 189 194 204 193 236 201 254 240 235 226 226 229 217 222 220 234 216 214 223 233 243 224 232 221
160 158 166 161 160 164 163 167 145 162 175 177 174 163 165 155 169 133 169 141 172 137 191 192 197 192 187 210 190 256 261 246 241 225 221 211 224 222 204 224 214 221 227 233 238 227 229
150 160 165 167 154 161 151 161 160 156 167 179 171 173 172 153 188 170 160 181 179 185 145 163 211 213 188 179 198 293 279 258 240 234 232 227 222 210 217 222 220 220 224 235 242 235 221
144 157 159 165 151 167 160 161 170 173 167 174 168 132 181 156 164 170 169 152 185 182 198 189 198 217 209 164 154 228 309 272 256 245 238 224 218 224 220 216 224 234 232 236 228 230 229
145 138 154 138 99 143 159 166 172 157 169 171 178 168 175 169 158 189 161 179 138 144 171 155 188 203 145 144 176 193 252 300 279 261 251 241 234 229 243 233 225 217 234 224 230 222 227
156 160 150 170 171 158 162 170 174 155 167 173 178 171 178 176 186 193 176 190 166 192 191 200 167 190 212 194 148 195 189 235 302 284 269 267 243 232 230 218 218 237 235 235 239 245 241
141 151 161 160 163 164 163 164 174 148 171 168 161 176 158 169 191 164 191 163 190 186 177 207 177 159 185 201 209 199 176 196 225 193 259 246 241 234 232 232 218 228 223 226 233 232 231
150 149 165 172 166 164 165 173 164 171 160 163 176 167 170 173 166 182 178 185 177 154 196 191 192 185 170 203 192 214 206 210 242 213 201 233 238 257 222 220 212 208 211 217 218 218 216
169 170 162 160 168 164 162 135 172 158 175 170 181 172 163 177 176 134 173 172 186 194 197 197 199 140 203 209 233 156 199 191 225 229 234 224 243 202 243 234 221 211 211 213 214 217 220
168 131 163 171 169 165 169 174 163 174 169 172 176 172 173 175 177 170 173 171 185 182 211 203 160 190 186 227 207 201 237 209 205 230 224 207 225 226 239 237 225 209 210 231 243 204 212
162 164 170 167 171 167 160 147 169 171 171 185 177 173 154 182 183 181 194 191 183 208 202 154 208 200 188 214 194 166 226 225 225 213 219 227 227 226 227 231 230 231 266 250 263 246 226
172 179 161 171 157 166 165 172 175 170 173 182 183 180 176 195 181 180 177 190 205 180 203 210 202 218 204 202 188 204 232 224 222 235 240 218 223 224 223 237 233 241 247 264 248 244 246
140 174 171 172 171 174 167 170 157 179 174 175 167 178 181 186 191 185 163 206 195 190 207 212 189 212 222 194 195 218 219 230 228 233 219 219 219 223 232 239 242 236 272 267 264 248 248
Wind_Speed
18 17 23 19 24 24 25 25 40 26 27 23 25 30 31 34 31 35 34 35 36 31 38 39 26 40 41 31 43 43 47 47 49 47 50 54 59 46 67 51 67 63 72 28 18 19 27
38 43 20 23 22 33 25 25 27 32 48 30 32 32 31 34 23 35 35 37 32 30 35 36 32 40 38 40 41 43 48 44 46 46 52 57 59 56 55 42 46 65 70 29 22 17 20
43 38 19 29 27 18 28 29 25 28 24 44 30 32 31 32 34 34 39 38 33 29 33 36 36 39 28 37 39 46 46 42 42 43 55 57 61 56 54 65 65 66 65 37 20 17 21
42 28 27 24 29 32 31 46 26 28 30 32 35 31 35 30 36 35 38 33 37 31 35 32 37 38 38 36 40 37 40 37 44 51 56 58 63 63 62 66 66 67 65 66 34 11 19
31 27 40 34 44 25 27 43 42 34 53 27 36 35 35 32 30 37 41 32 31 32 31 37 37 38 36 37 41 39 47 38 42 51 58 57 62 65 63 69 68 64 66 77 39 17 15
26 29 35 31 35 43 37 31 34 34 61 60 38 60 34 58 51 37 40 31 33 31 32 32 35 35 39 40 41 27 44 41 40 47 57 49 56 58 56 57 38 64 63 72 40 25 9
37 38 33 32 27 38 35 56 33 38 57 38 36 37 52 61 49 37 39 39 28 30 32 34 35 35 34 40 40 41 42 44 47 43 53 55 52 56 67 65 66 63 61 65 77 31 12
30 39 29 35 39 41 34 47 54 37 36 30 40 36 34 51 35 35 33 43 25 33 29 35 33 35 37 37 39 39 43 42 47 50 49 55 53 61 56 55 56 39 64 61 71 34 12
30 36 36 34 41 39 38 42 40 43 32 54 58 43 68 45 42 35 39 27 25 33 34 33 31 32 34 36 40 40 43 38 42 49 47 52 50 54 60 69 65 23 60 58 62 55 24
35 30 38 38 35 41 34 46 50 48 47 35 56 51 41 45 48 40 41 26 41 35 35 33 36 41 41 40 41 41 41 42 44 43 54 52 51 51 53 62 45 60 58 60 54 64 24
40 39 41 37 43 39 41 42 45 40 46 43 53 60 49 39 39 57 52 60 48 36 30 39 35 39 41 41 43 43 43 45 45 46 49 44 48 54 54 53 56 53 56 53 47 55 22
40 43 43 45 39 38 42 42 43 43 46 50 45 48 41 67 62 66 61 47 54 46 62 59 38 45 41 46 47 47 45 50 48 49 48 48 50 55 49 52 59 51 52 50 50 44 56
43 45 43 40 50 44 41 42 44 44 43 42 51 53 54 66 75 65 38 58 57 43 56 42 43 43 46 52 38 52 51 52 48 51 51 48 49 50 48 48 54 50 41 48 46 42 44
47 46 45 47 48 43 50 54 46 48 40 33 64 46 48 67 69 65 66 72 57 69 63 43 41 46 43 50 58 54 57 55 50 47 49 48 44 48 46 44 46 50 35 34 33 33 31
31 48 49 50 47 49 44 53 42 46 41 44 61 63 55 65 61 66 59 68 54 69 62 49 62 52 52 58 53 56 55 57 53 43 47 47 43 44 29 43 43 45 39 36 35 32 27
48 28 52 53 48 48 37 48 55 48 48 61 47 44 53 70 44 63 59 63 64 68 60 66 53 59 50 44 50 47 53 54 53 49 44 46 44 40 44 39 38 38 40 32 31 28 22
47 52 52 56 54 52 50 54 54 57 55 50 54 37 38 37 31 57 41 56 68 68 70 65 71 75 70 58 49 44 48 49 51 53 51 48 50 43 41 42 38 39 42 33 29 22 21
55 49 52 55 58 59 55 58 53 58 66 68 62 41 51 42 32 38 50 56 65 44 70 70 66 62 70 78 64 46 41 44 46 48 48 45 48 47 43 45 39 39 40 35 28 23 15
55 57 56 59 58 56 56 57 59 59 64 69 67 65 61 40 71 56 49 73 69 74 46 67 73 65 63 68 81 49 34 38 42 43 44 44 46 47 50 48 48 42 37 36 31 25 26
57 60 60 62 57 66 63 60 64 68 66 71 66 51 72 37 68 41 68 55 80 73 81 77 74 69 65 59 44 71 35 34 37 39 41 42 47 46 47 51 51 46 44 37 30 29 29
63 54 62 54 26 53 64 68 71 64 69 72 80 72 73 51 38 77 69 70 62 65 71 56 74 67 54 47 62 75 61 36 38 40 43 44 47 48 39 35 42 47 44 39 34 33 33
67 68 61 70 70 69 72 75 77 64 72 76 83 78 80 73 85 91 66 86 45 89 84 84 66 77 76 71 54 71 72 61 37 37 37 32 35 39 41 46 51 46 46 45 42 34 32
65 71 73 70 71 74 73 72 80 61 79 77 64 84 53 73 94 39 90 50 91 86 71 88 60 65 73 79 79 71 63 72 65 56 43 44 42 42 47 47 52 46 50 51 48 46 45
76 74 79 81 78 73 77 83 75 83 74 74 87 77 79 75 56 89 87 87 67 54 94 90 84 71 72 83 76 81 80 77 71 57 48 51 41 47 47 51 55 59 60 57 56 56 56
81 82 82 78 85 81 79 61 88 71 87 83 93 82 79 88 80 66 81 84 88 91 99 98 94 62 86 89 79 73 83 77 78 74 69 57 63 60 47 41 52 58 62 65 65 64 64
82 60 84 86 88 84 88 91 82 89 83 87 93 84 83 91 79 71 79 55 91 89 98 99 58 89 77 81 87 82 80 81 78 78 76 70 70 69 71 69 59 63 70 71 68 65 71
84 86 89 87 87 88 83 65 91 89 89 97 96 92 60 100 90 91 100 102 94 100 99 68 99 95 86 90 87 75 84 81 83 71 75 76 76 78 79 81 76 77 75 74 69 67 75
89 92 80 91 83 90 90 94 97 93 94 91 99 99 93 102 101 98 82 104 105 79 103 101 104 99 98 91 91 94 89 85 85 86 79 79 82 86 85 90 80 83 78 70 69 71 72
75 93 92 96 93 97 93 95 82 103 99 101 87 99 100 106 103 103 55 103 107 99 104 103 96 100 95 98 100 95 93 93 88 88 83 83 87 93 99 94 88 85 79 66 66 67 71
Wind_Direction
8 16 11 359 353 354 2 358 26 358 350 325 328 312 315 313 329 318 321 312 310 295 307 308 301 317 321 306 319 324 329 316 332 330 329 333 350 338 354 344 353 350 352 327 306 265 240
29 25 19 357 342 15 341 341 352 2 17 346 347 346 309 319 305 334 324 320 312 295 298 301 304 312 317 319 320 329 331 327 332 332 334 340 353 350 352 334 341 354 355 344 314 265 235
24 22 350 2 9 331 338 349 339 3 330 11 340 338 345 345 315 329 339 331 313 304 305 300 307 309 315 318 327 333 337 333 332 332 340 341 355 356 356 356 356 356 356 358 337 278 229
25 10 350 346 4 2 7 11 338 334 330 330 345 342 349 317 334 327 339 312 318 307 309 295 311 311 311 321 327 335 335 332 333 341 345 345 358 360 1 359 359 358 358 1 357 283 218
3 3 14 13 13 352 343 10 4 359 17 335 355 340 342 339 321 339 343 324 315 305 304 305 312 314 318 324 326 334 338 333 334 343 347 347 358 3 1 359 0 359 1 2 4 339 232
356 341 7 347 3 11 360 355 5 334 16 13 335 10 334 10 353 344 342 326 322 310 311 306 302 317 315 324 331 328 336 336 334 342 346 347 351 357 360 3 349 359 2 4 6 5 297
1 5 2 358 328 8 5 11 354 5 11 335 352 352 10 11 5 329 345 347 314 313 311 309 315 317 332 324 331 333 335 340 342 340 347 348 350 358 2 2 2 2 2 5 7 13 14
352 355 350 355 2 1 355 7 9 343 330 341 331 335 339 9 339 338 334 350 320 326 316 331 323 327 321 328 330 331 339 339 343 345 345 348 350 358 0 1 6 352 6 6 8 14 358
347 351 352 349 354 354 357 2 2 356 347 4 5 357 6 1 341 324 328 312 321 345 346 335 328 330 328 329 334 337 341 336 339 346 342 348 348 354 359 3 5 334 7 4 11 12 8
342 342 348 351 346 349 337 0 0 2 358 335 358 2 332 346 1 346 342 341 353 343 337 330 337 339 338 334 332 335 339 338 337 338 344 344 345 350 356 1 1 3 4 9 11 13 32
338 340 340 341 349 346 346 351 353 338 356 338 359 357 357 334 336 351 359 7 8 329 325 336 330 335 334 330 331 333 331 332 333 336 343 339 342 350 356 357 -0 3 6 9 7 14 30
332 335 337 340 338 341 343 343 347 347 355 356 340 339 345 360 2 4 1 347 4 3 1 0 331 336 328 331 328 328 330 330 330 331 338 337 341 349 350 354 0 359 2 9 13 12 15
327 330 331 331 338 339 336 342 343 343 342 336 349 327 350 359 0 1 328 359 351 332 350 1 354 353 328 340 332 325 324 325 329 331 331 335 338 340 343 349 358 356 2 4 5 10 18
326 327 326 329 332 335 337 339 339 338 339 335 352 340 338 356 360 0 1 356 350 353 350 338 338 321 340 330 336 318 317 318 318 326 329 328 333 340 341 342 349 355 355 1 10 15 16
327 320 325 324 327 331 330 335 329 333 331 339 346 346 351 353 349 357 358 352 340 352 352 343 347 343 344 345 309 318 315 313 319 318 318 322 329 329 320 338 342 351 351 352 354 5 26
315 316 320 318 323 327 325 326 330 329 331 337 337 341 346 346 327 357 345 354 352 351 340 344 329 339 338 324 336 318 306 309 311 314 315 314 317 321 328 327 332 337 345 342 349 351 5
309 318 313 315 320 322 324 327 325 326 327 328 325 322 334 324 320 318 334 352 351 350 349 347 345 340 339 346 335 306 305 307 309 312 314 313 318 319 329 320 326 332 339 339 335 346 340
307 309 309 312 315 316 321 321 322 324 325 328 335 330 319 308 337 325 346 325 348 331 349 347 344 342 339 338 334 325 306 304 305 304 308 306 313 318 310 320 315 325 327 332 332 321 325
310 308 307 307 312 312 320 317 320 321 322 326 331 333 332 301 335 329 322 347 342 348 323 326 345 342 337 331 337 345 315 308 305 305 307 308 309 307 313 316 311 315 320 324 323 315 300
310 306 308 306 309 309 312 316 316 318 320 324 328 319 324 295 331 330 336 335 342 343 340 343 343 342 339 328 321 346 327 315 309 307 308 304 302 306 304 307 309 314 319 316 313 305 295
308 307 307 306 299 309 311 314 315 318 320 322 320 319 323 324 329 329 330 341 318 317 339 328 340 331 320 321 332 339 355 329 314 310 309 305 302 302 310 313 307 303 310 307 301 288 289
297 297 304 299 302 310 312 311 312 314 319 318 319 322 322 328 325 328 336 332 320 332 337 332 333 338 339 336 320 333 337 350 326 319 315 316 310 306 305 303 302 307 306 302 298 293 287
297 303 300 301 304 306 307 309 310 307 314 318 317 315 316 319 323 321 328 306 329 330 336 330 327 314 337 335 335 332 321 334 341 328 335 330 324 313 304 304 302 306 304 307 308 303 297
297 301 296 296 299 302 303 305 311 310 310 316 311 311 323 323 318 318 320 327 317 307 327 330 332 323 328 333 332 332 332 332 339 332 329 328 331 339 302 300 299 300 300 300 299 298 296
286 287 294 296 297 302 305 296 303 306 306 311 310 313 314 313 323 303 321 322 323 321 324 326 328 313 327 330 330 309 331 324 332 334 333 332 339 322 321 300 294 293 294 291 292 291 288
283 286 291 289 293 298 298 298 304 304 308 308 310 314 309 313 318 316 323 314 314 326 319 322 301 327 330 326 329 330 329 326 325 331 331 319 331 329 328 323 300 289 290 293 287 296 292
284 285 285 289 290 294 300 300 300 302 306 304 306 310 312 311 314 316 314 316 322 315 318 310 319 324 319 326 328 310 327 329 330 321 325 329 331 328 323 317 312 310 304 297 292 282 283
278 278 283 286 293 292 295 295 298 301 301 302 301 303 307 305 311 315 318 314 313 316 317 316 319 317 322 324 327 324 327 329 328 328 323 324 326 324 320 315 312 311 306 298 289 286 284
284 278 281 283 286 286 291 293 302 294 298 299 306 302 306 305 307 311 311 309 312 316 313 312 322 317 318 323 322 324 326 325 326 326 322 324 323 321 318 315 315 313 310 303 297 287 283